This demonstration page uses our WeatherBlox Daily Observations layout. Learn more.

Left ArrowRight Arrow

34.74481, -87.66753

Hourly Observations for July 2, 2016

Temp ( °F °C ) Dew Point ( °F °C ) Humidity (%) Winds ( mph kmh ) Pressure ( in mb ) Visibility ( mi km ) Precip ( " mm )
12:53 am 00:53 Clear 78 25.6 69 20.6 74 74 Calm 30.03 1017 10 16 0.00 0.00
1:53 am 01:53 Clear 77 25 69 20.6 77 77 NNE 3 6 30.02 1017 10 16 0.00 0.00
2:53 am 02:53 Clear 76 24.4 68 20 77 77 Calm 30.01 1016 10 16 0.00 0.00
3:53 am 03:53 Clear 75 23.9 68 20 79 79 NNE 3 6 30.02 1017 10 16 0.00 0.00
4:53 am 04:53 Clear 73 22.8 67 19.4 81 81 Calm 30.03 1017 10 16 0.00 0.00
5:53 am 05:53 Sunny 71 21.7 67 19.4 87 87 Calm 30.04 1017 7 11 0.00 0.00
6:53 am 06:53 Sunny 76 24.4 70 21.1 82 82 Calm 30.05 1018 8 13 0.00 0.00
7:53 am 07:53 Sunny 78 25.6 69 20.6 74 74 E 3 6 30.07 1018 9 14 0.00 0.00
8:53 am 08:53 Sunny 81 27.2 70 21.1 69 69 Calm 30.07 1018 10 16 0.00 0.00
9:53 am 09:53 Sunny 85 29.4 69 20.6 59 59 Calm 30.06 1018 10 16 0.00 0.00
10:53 am 10:53 Sunny 87 30.6 68 20 53 53 Calm 30.06 1018 10 16 0.00 0.00
11:53 am 11:53 Sunny 89 31.7 67 19.4 48 48 N 5 7 30.06 1018 10 16 0.00 0.00
12:53 pm 12:53 Sunny 92 33.3 65 18.3 41 41 NW 7 11 30.04 1017 10 16 0.00 0.00
1:53 pm 13:53 Sunny 93 33.9 66 18.9 41 41 VRB 5 7 30.03 1017 10 16 0.00 0.00
2:53 pm 14:53 Sunny 94 34.4 62 16.7 35 35 VRB 6 9 30.02 1017 10 16 0.00 0.00
3:53 pm 15:53 Sunny 92 33.3 61 16.1 36 36 Calm 30.01 1016 10 16 0.00 0.00
4:53 pm 16:53 Sunny 93 33.9 64 17.8 38 38 NNW 7 11 30.01 1016 10 16 0.00 0.00
5:53 pm 17:53 Sunny 92 33.3 65 18.3 41 41 N 6 9 30.00 1016 10 16 0.00 0.00
6:53 pm 18:53 Sunny 89 31.7 65 18.3 45 45 Calm 30.00 1016 10 16 0.00 0.00
7:53 pm 19:53 Sunny 85 29.4 67 19.4 55 55 NNE 3 6 30.01 1016 10 16 0.00 0.00
8:53 pm 20:53 Clear 83 28.3 67 19.4 59 59 ENE 5 7 30.01 1016 10 16 0.00 0.00
9:53 pm 21:53 Clear 82 27.8 65 18.3 56 56 NE 7 11 30.03 1017 10 16 0.00 0.00
10:53 pm 22:53 Clear 78 25.6 66 18.9 67 67 Calm 30.03 1017 10 16 0.00 0.00
11:53 pm 23:53 Clear 75 23.9 67 19.4 76 76 Calm 30.03 1017 10 16 0.00 0.00

Powered by AerisWeather